TimeEST,TemperatureF,Dew PointF,Humidity,Sea Level PressureIn,VisibilityMPH,Wind Direction,Wind SpeedMPH,Gust SpeedMPH,PrecipitationIn,Events,Conditions,WindDirDegrees,DateUTC
12:53 AM,39.9,23.0,51,30.11,10.0,NE,6.9,-,N/A,,Clear,50,2012-11-25 05:53:00
1:53 AM,39.0,21.9,50,30.12,10.0,NE,4.6,-,N/A,,Clear,50,2012-11-25 06:53:00
2:53 AM,37.0,21.9,54,30.14,10.0,NE,3.5,-,N/A,,Clear,50,2012-11-25 07:53:00
3:53 AM,35.1,21.9,59,30.14,10.0,ENE,3.5,-,N/A,,Clear,60,2012-11-25 08:53:00
4:53 AM,34.0,21.9,61,30.16,10.0,NE,3.5,-,N/A,,Clear,40,2012-11-25 09:53:00
5:53 AM,32.0,21.9,66,30.17,10.0,Calm,Calm,-,N/A,,Clear,0,2012-11-25 10:53:00
6:53 AM,32.0,21.9,66,30.18,10.0,Calm,Calm,-,N/A,,Clear,0,2012-11-25 11:53:00
7:53 AM,33.1,23.0,66,30.19,10.0,Calm,Calm,-,N/A,,Clear,0,2012-11-25 12:53:00
8:53 AM,39.0,23.0,53,30.21,10.0,ENE,5.8,-,N/A,,Clear,70,2012-11-25 13:53:00
9:53 AM,43.0,23.0,45,30.22,10.0,East,5.8,-,N/A,,Clear,90,2012-11-25 14:53:00
10:53 AM,48.0,24.1,39,30.21,10.0,Variable,4.6,-,N/A,,Clear,0,2012-11-25 15:53:00
11:53 AM,51.1,25.0,36,30.18,10.0,Calm,Calm,-,N/A,,Clear,0,2012-11-25 16:53:00
12:53 PM,54.0,25.0,33,30.14,10.0,SW,6.9,-,N/A,,Clear,230,2012-11-25 17:53:00
1:53 PM,57.0,25.0,29,30.11,10.0,Variable,6.9,-,N/A,,Clear,0,2012-11-25 18:53:00
2:53 PM,59.0,24.1,26,30.09,10.0,South,5.8,-,N/A,,Clear,180,2012-11-25 19:53:00
3:53 PM,59.0,24.1,26,30.09,10.0,SSW,8.1,-,N/A,,Clear,210,2012-11-25 20:53:00
4:53 PM,57.0,27.0,32,30.09,10.0,SW,4.6,-,N/A,,Clear,220,2012-11-25 21:53:00
5:53 PM,48.9,28.9,46,30.11,10.0,Calm,Calm,-,N/A,,Clear,0,2012-11-25 22:53:00
6:53 PM,45.0,32.0,60,30.12,10.0,Calm,Calm,-,N/A,,Clear,0,2012-11-25 23:53:00
7:53 PM,42.1,32.0,67,30.14,10.0,Calm,Calm,-,N/A,,Clear,0,2012-11-26 00:53:00
8:53 PM,39.9,30.9,70,30.14,10.0,Calm,Calm,-,N/A,,Clear,0,2012-11-26 01:53:00
9:53 PM,37.0,30.9,79,30.14,10.0,Calm,Calm,-,N/A,,Clear,0,2012-11-26 02:53:00
10:53 PM,36.0,30.9,82,30.15,10.0,Calm,Calm,-,N/A,,Clear,0,2012-11-26 03:53:00
11:53 PM,35.1,30.0,82,30.14,10.0,Calm,Calm,-,N/A,,Clear,0,2012-11-26 04:53:00